Weather History for Big Piney, WY

Change the Weather History Date:

Sunday, November 4, 2012

  Actual Average Record
Temperature  
Mean Temperature 41 °F 30 °F  
Max Temperature 57 °F 45 °F 67 °F (1978)
Min Temperature 24 °F 15 °F -2 °F (1994)
Degree Days  
Heating Degree Days 24 35  
Month to date heating degree days 108 136  
Since 1 July heating degree days 1238 1716  
Cooling Degree Days 0 0  
Month to date cooling degree days 0 0  
Year to date cooling degree days 67 35  
Moisture  
Dew Point 25 °F    
Average Humidity 58    
Maximum Humidity 81    
Minimum Humidity 35    
Precipitation  
Precipitation 0.00 in 0.00 in 0.15 in (1988)
Month to date precipitation 0.00 0.03  
Year to date precipitation 2.50 6.00  
Sea Level Pressure  
Sea Level Pressure 30.32 in    
Wind  
Wind Speed 7 mph (NNW)    
Max Wind Speed 17 mph    
Max Gust Speed 23 mph    
Visibility 10 miles    
Events      
T = Trace of Precipitation, MM = Missing Value Source: NWS Daily Summary

Daily Weather History Graph

Daily Weather History Graph

Search for Another Location

Airport:

Trip Planner

Search our weather history database for the weather conditions in past years. The results will help you decide how hot, cold, wet, or windy it might be!

Date:

Astronomy

Nov. 04, 2012 Rise Set
Actual Time 6:58 AM MST 5:08 PM MST
Civil Twilight 6:29 AM MST 5:38 PM MST
Nautical Twilight 5:55 AM MST 6:11 PM MST
Astronomical Twilight 5:22 AM MST 6:44 PM MST
Moon 9:49 PM MST (11/4) 11:45 AM MST (11/4)
Length of Visible Light 11h 09m
Length of Day
10h 10m
Waning Gibbous, 71% of the Moon is Illuminated
Nov 4
Waning Gibbous
Nov 6
Last Quarter
Nov 13
New
Nov 20
First Quarter
Nov 28
Full

Hourly Weather History & Observations

Time (MST) Temp. Windchill Dew Point Humidity Pressure Visibility Wind Dir Wind Speed Gust Speed Precip Events Conditions
12:53 AM 32.0 °F - 21.9 °F 66% 30.23 in 10.0 mi Calm Calm - N/A   Clear
1:53 AM 30.9 °F - 21.0 °F 67% 30.23 in 10.0 mi Calm Calm - N/A   Clear
1:53 AM 28.0 °F 24.2 °F 21.0 °F 75% 30.23 in 10.0 mi SSW 3.5 mph - N/A   Clear
2:53 AM 30.0 °F - 21.0 °F 69% 30.22 in 10.0 mi Calm Calm - N/A   Clear
3:53 AM 28.9 °F 23.9 °F 21.0 °F 72% 30.22 in 10.0 mi East 4.6 mph - N/A   Clear
4:53 AM 27.0 °F - 21.0 °F 78% 30.27 in 10.0 mi Calm Calm - N/A   Clear
5:53 AM 26.1 °F 17.6 °F 19.9 °F 78% 30.32 in 10.0 mi NW 8.1 mph - N/A   Clear
6:53 AM 25.0 °F - 19.9 °F 81% 30.33 in 10.0 mi Calm Calm - N/A   Clear
7:53 AM 26.1 °F 19.4 °F 21.0 °F 81% 30.38 in 10.0 mi ENE 5.8 mph - N/A   Clear
8:53 AM 34.0 °F - 23.0 °F 64% 30.33 in 10.0 mi Calm Calm - N/A   Clear
9:53 AM 41.0 °F 39.0 °F 25.0 °F 53% 30.30 in 10.0 mi ESE 3.5 mph - N/A   Clear
10:53 AM 46.9 °F - 27.0 °F 46% 30.30 in 10.0 mi SSW 4.6 mph - N/A   Clear
11:53 AM 51.1 °F - 28.0 °F 41% 30.27 in 10.0 mi WSW 6.9 mph - N/A   Clear
12:27 PM 55.4 °F - 28.4 °F 36% 30.36 in 10.0 mi NNW 17.3 mph 26.5 mph N/A   Scattered Clouds
12:53 PM 55.9 °F - 28.0 °F 34% 30.25 in 10.0 mi NNW 13.8 mph 23.0 mph N/A   Partly Cloudy
1:53 PM 55.9 °F - 28.0 °F 34% 30.27 in 10.0 mi NNW 10.4 mph 19.6 mph N/A   Clear
2:53 PM 55.9 °F - 28.0 °F 34% 30.27 in 10.0 mi NNW 15.0 mph 23.0 mph N/A   Clear
3:53 PM 54.0 °F - 28.9 °F 38% 30.29 in 10.0 mi North 17.3 mph 23.0 mph N/A   Partly Cloudy
4:53 PM 48.9 °F - 28.9 °F 46% 30.34 in 10.0 mi NNW 12.7 mph - N/A   Clear
5:53 PM 39.9 °F 35.1 °F 27.0 °F 60% 30.41 in 10.0 mi North 6.9 mph - N/A   Clear
6:53 PM 39.0 °F 31.4 °F 27.0 °F 62% 30.43 in 10.0 mi North 12.7 mph - N/A   Clear
7:53 PM 39.0 °F 31.4 °F 28.0 °F 65% 30.43 in 10.0 mi NNW 12.7 mph - N/A   Clear
8:53 PM 35.1 °F 29.3 °F 26.1 °F 70% 30.42 in 10.0 mi NW 6.9 mph - N/A   Clear
9:53 PM 35.6 °F 29.2 °F 26.6 °F 70% 30.45 in 10.0 mi NW 8.1 mph - N/A   Clear
10:53 PM 32.0 °F 26.4 °F 25.0 °F 75% 30.38 in 10.0 mi NNW 5.8 mph - N/A   Clear